Location: Unspecified
(49.2170°N, 0.0000°E)
Time: 18:14:00
(UTC+00:00)

Transit 2A - Pass Details

Date: 18 June 2019
Orbit: 597 x 962 km, 66.7° (Epoch: 22 August)

Event Time Altitude Azimuth Distance (km) Brightness Sun altitude
Rises 04:26:41 0° 279° (W) 3,645 9.0 3.5°
Reaches altitude 10° 04:30:10 10° 297° (WNW) 2,684 8.5 4.0°
Maximum altitude 04:34:26 19° 340° (NNW) 2,093 8.5 4.6°
Drops below altitude 10° 04:38:34 10° 23° (NNE) 2,585 9.7 5.1°
Sets 04:41:51 0° 42° (NE) 3,465 11.1 5.6°
